Showing default

KANOPUS-V 6, 43877

Orbit data source: Space-Track

KANOPUS-V 6, 43877 is a payload satellite owned by VNIIEM (CIS) in SSO that was launched on Thu, 27 Dec 2018 UTC via a SOYUZ-2-1A launch vehicle from the Vostochny Cosmodrome (VOSTO). Payloads include a variety of satellites, spacecraft, and rockets equipped with specific instruments for various scientific and technological missions. These include communications satellites like Starlink; space stations such as the ISS; scientific satellites like the Hubble; Earth observation satellites from companies like Planet Labs, Umbra, and HawkEye 360; GPS; miniature CubeSats for education and research; and military/defense satellites.

Loading next visibility...
KANOPUS-V 6 details
Identifier
43877, 2018-111B
Orbit
SSO
Last TLE update4 hours ago
Origin
Flag of CISVNIIEM (CIS)
ManufacturerVNIIEM
MissionOperational Civil Imaging
Bus & MotorKANOPUS, Unknown motor
Mass473 kg wet, 473 kg dry
Launch date (UTC)
2018-12-27 (6 years ago)
Launch vehicle
SOYUZ-2-1A
Launch site
Vostochny Cosmodrome (VOSTO)
Object type
Payload
Rocket body
Debris
Shape & HBRBox + 2 Pan, 6 m
Radar Cross Section1.665 m², Large (>1 m²)

Expand to show TLE details & history

TLE from 4 hours ago
0 KANOPUS-V 6
1 43877U 18111B   24337.16654806  .00010380  00000-0  37513-3 0  9990
2 43877  97.3890 243.6965 0002204  89.6331 270.5162 15.28644742327312
Epoch: 2024-12-02T03:59Z
Definitive object data (Epoch: 2024-12-02T03:59:49.752Z)
Latitude0.00004°
Longitude112.24489°
Altitude482.952 km
Speed7.624 km/s
True Right ascension16h 14m 47s
True Declination0° 00' 00"
Sunlit
Object was in daylight at TLE epoch
Visualization TLE readout
Latitude-75.67539°
Longitude142.76091°
Altitude508.732 km
Speed7.608 km/s
Apparent Right ascension18h 10m 39s
Apparent Declination-58° 21' 30"
Sunlit
Object is in daylight
Visualization observer readout
Local Sidereal Time06:08:29
Azimuth180.896° SSW
Elevation-71.555°
Doppler factor1
Orbital elements
Apogee altitude478.327 km
Perigee altitude475.305 km
Semi-major axis6,854.953 km
Eccentricity0.0002204
Inclination97.389°
RAAN243.6965°
Arg. of periapsis89.6331°
True anomaly270.49094°
Mean anomaly270.5162°
Eccentric anomaly270.50357°
Mean motion3.82416 °/min
BSTAR0.00037513
Orbital period94.14 mins
Loading maneuver chart data...
Loading historical data...
Loading historical data...
Loading historical data...
Loading historical data...
Loading historical data...
Loading historical data...
Loading historical data...

KANOPUS-V 6 Visibility forecast

Observer location: undefined°, undefined

Span
Click to sort rows by Start time (UTC) header in descending order
Start Az.
Max El. time (UTC)
Max El. Az.
Max El.
End time (UTC)
End Az.
6 mins2024-12-02 18:15:15.997Z181.02° SSW2024-12-02 18:18:15.997Z236.535° WSW38.783°2024-12-02 18:21:15.997Z335.937° NNW
5 mins2024-12-03 07:16:15.997Z348.219° N2024-12-03 07:18:15.997Z297.174° NW32.405°2024-12-03 07:21:15.997Z219.593° SW
|